This demonstration page uses our WeatherBlox Daily Observations layout. Learn more.

Hourly Observations for June 26, 2017

Temp ( °F °C ) Dew Point ( °F °C ) Humidity (%) Winds ( mph kmh ) Pressure ( in mb ) Visibility ( mi km ) Precip ( " mm )
12:15 am 00:15 Clear N/A N/A N/A W 5 7 N/A 10 16.09344 0 0
12:35 am 00:35 Clear N/A N/A N/A WSW 6 9 N/A 10 16.09344 0 0
12:55 am 00:55 Clear N/A N/A N/A W 7 11 N/A 10 16.09344 0 0
1:15 am 01:15 Clear N/A N/A N/A W 6 9 N/A 10 16.09344 0 0
1:35 am 01:35 Clear N/A N/A N/A W 9 15 N/A 10 16.09344 0 0
1:55 am 01:55 Clear N/A N/A N/A W 9 15 N/A 10 16.09344 0 0
2:15 am 02:15 Clear N/A N/A N/A W 7 11 N/A 10 16.09344 0 0
2:35 am 02:35 Clear N/A N/A N/A WNW 6 9 N/A 10 16.09344 0 0
2:55 am 02:55 Clear N/A N/A N/A WNW 3 6 N/A 10 16.09344 0 0
3:15 am 03:15 Clear N/A N/A N/A W 5 7 N/A 10 16.09344 0 0
3:35 am 03:35 Clear N/A N/A N/A W 5 7 N/A 10 16.09344 0 0
3:55 am 03:55 Clear N/A N/A N/A WNW 7 11 N/A 10 16.09344 0 0
4:15 am 04:15 Clear N/A N/A N/A NW 7 11 N/A 10 16.09344 0 0
4:35 am 04:35 Clear N/A N/A N/A NW 9 15 N/A 10 16.09344 0 0
4:55 am 04:55 Clear N/A N/A N/A WNW 6 9 N/A 10 16.09344 0 0
5:15 am 05:15 Clear N/A N/A N/A WNW 5 7 N/A 10 16.09344 0 0
5:35 am 05:35 Clear N/A N/A N/A W 5 7 N/A 10 16.09344 0 0
5:55 am 05:55 Partly Cloudy N/A N/A N/A WNW 5 7 N/A 10 16.09344 0 0
6:15 am 06:15 Cloudy N/A N/A N/A WNW 3 6 N/A 10 16.09344 0 0
6:35 am 06:35 Partly Cloudy N/A N/A N/A WNW 3 6 N/A 10 16.09344 0 0
6:55 am 06:55 Partly Cloudy N/A N/A N/A WNW 5 7 N/A 10 16.09344 0 0
7:15 am 07:15 Partly Cloudy N/A N/A N/A Calm N/A 10 16.09344 0 0
7:35 am 07:35 Sunny N/A N/A N/A Calm N/A 10 16.09344 0 0
7:55 am 07:55 Sunny N/A N/A N/A W 5 7 N/A 10 16.09344 0 0
8:15 am 08:15 Sunny N/A N/A N/A W 6 9 N/A 10 16.09344 0 0
8:35 am 08:35 Sunny N/A N/A N/A W 3 6 N/A 10 16.09344 0 0
8:55 am 08:55 Sunny N/A N/A N/A W 9 15 N/A 10 16.09344 0 0
9:15 am 09:15 Sunny N/A N/A N/A WNW 12 19 N/A 10 16.09344 0 0
9:35 am 09:35 Sunny N/A N/A N/A WNW 6 9 N/A 10 16.09344 0 0
9:55 am 09:55 Sunny N/A N/A N/A W 10 17 N/A 10 16.09344 0 0
10:15 am 10:15 Sunny 73 23 50 10 44 44 W 9 15 30.12 1020 10 16.09344 0 0
10:35 am 10:35 Sunny 77 25 50 10 39 39 NNW 10 17 30.12 1020 10 16.09344 0 0
10:55 am 10:55 Sunny 77 25 48 9 36 36 WNW 10 17 30.12 1020 10 16.09344 0 0
11:15 am 11:15 Partly Cloudy 77 25 48 9 36 36 NW 7 11 30.12 1020 10 16.09344 0 0
11:35 am 11:35 Mostly Cloudy 77 25 50 10 39 39 W 10 17 30.12 1020 10 16.09344 0 0
11:55 am 11:55 Partly Cloudy 79 26 50 10 37 37 W 10 17 30.09 1019 10 16.09344 0 0
12:15 pm 12:15 Mostly Cloudy 79 26 52 11 39 39 W 8 13 30.09 1019 10 16.09344 0 0
12:35 pm 12:35 Partly Cloudy 81 27 50 10 34 34 N 3 6 30.09 1019 10 16.09344 0 0
12:55 pm 12:55 Partly Cloudy 79 26 52 11 39 39 W 9 15 30.09 1019 10 16.09344 0 0
1:15 pm 13:15 Mostly Cloudy with Haze 77 25 50 10 39 39 NW 9 15 30.09 1019 5 8.04672 0 0
1:35 pm 13:35 Mostly Cloudy 79 26 50 10 37 37 NNW 3 6 30.09 1019 10 16.09344 0 0
1:55 pm 13:55 Mostly Cloudy 81 27 52 11 37 37 WNW 3 6 30.09 1019 10 16.09344 0 0
2:15 pm 14:15 Partly Cloudy 82 28 52 11 35 35 W 5 7 30.06 1018 10 16.09344 0 0
2:35 pm 14:35 Mostly Cloudy 79 26 50 10 37 37 SW 6 9 30.06 1018 10 16.09344 0 0
2:55 pm 14:55 Cloudy 79 26 52 11 39 39 WNW 7 11 30.06 1018 10 16.09344 0 0
3:15 pm 15:15 Mostly Cloudy 79 26 50 10 37 37 WNW 6 9 30.06 1018 10 16.09344 0 0
3:35 pm 15:35 Mostly Cloudy 81 27 50 10 34 34 W 7 11 30.06 1018 10 16.09344 0 0
3:55 pm 15:55 Mostly Cloudy 81 27 50 10 34 34 SSW 9 15 30.06 1018 10 16.09344 0 0
4:15 pm 16:15 Partly Cloudy 81 27 52 11 37 37 WNW 6 9 30.03 1017 10 16.09344 0 0
4:35 pm 16:35 Mostly Cloudy 81 27 52 11 37 37 Calm 30.03 1017 10 16.09344 0 0
4:55 pm 16:55 Partly Cloudy 82 28 52 11 35 35 SW 6 9 30.03 1017 10 16.09344 0 0
5:15 pm 17:15 Sunny 82 28 54 12 37 37 Calm 30.03 1017 10 16.09344 0 0
5:35 pm 17:35 Sunny 82 28 54 12 37 37 SW 9 15 30 1016 10 16.09344 0 0
5:55 pm 17:55 Partly Cloudy 82 28 52 11 35 35 S 10 17 30 1016 10 16.09344 0 0
6:15 pm 18:15 Partly Cloudy 82 28 52 11 35 35 SSW 7 11 30 1016 10 16.09344 0 0
6:35 pm 18:35 Sunny 82 28 52 11 35 35 SW 7 11 30 1016 10 16.09344 0 0
6:55 pm 18:55 Partly Cloudy 81 27 52 11 37 37 SW 7 11 30 1016 10 16.09344 0 0
7:15 pm 19:15 Partly Cloudy 81 27 54 12 39 39 SW 3 6 30 1016 10 16.09344 0 0
7:35 pm 19:35 Partly Cloudy 81 27 54 12 39 39 SW 3 6 30 1016 10 16.09344 0 0
7:55 pm 19:55 Partly Cloudy 79 26 52 11 39 39 SW 3 6 30 1016 10 16.09344 0 0
8:15 pm 20:15 Sunny 77 25 54 12 44 44 WSW 3 6 30 1016 10 16.09344 0 0
8:35 pm 20:35 Sunny 77 25 55 13 47 47 SSW 3 6 30 1016 10 16.09344 0 0
8:55 pm 20:55 Clear 73 23 55 13 53 53 Calm 30 1016 10 16.09344 0 0
9:15 pm 21:15 Partly Cloudy 72 22 57 14 61 61 Calm 30 1016 10 16.09344 0 0
9:35 pm 21:35 Mostly Cloudy 70 21 61 16 73 73 Calm 30 1016 10 16.09344 0 0
9:55 pm 21:55 Cloudy 72 22 59 15 65 65 Calm 30 1016 10 16.09344 0 0
10:15 pm 22:15 Cloudy 70 21 61 16 73 73 WNW 7 11 30 1016 10 16.09344 0 0
10:35 pm 22:35 Cloudy 72 22 55 13 57 57 NNW 8 13 30 1016 10 16.09344 0 0
10:55 pm 22:55 Cloudy 73 23 55 13 53 53 NNW 7 11 30 1016 10 16.09344 0 0
11:15 pm 23:15 Cloudy 72 22 55 13 57 57 NW 6 9 30 1016 10 16.09344 0 0
11:35 pm 23:35 Cloudy 72 22 54 12 53 53 NW 7 11 30.03 1017 10 16.09344 0 0
11:55 pm 23:55 Cloudy 72 22 54 12 53 53 NW 6 9 30.03 1017 10 16.09344 0 0

Powered by AerisWeather